Regional Weather Roundup
Issued by NWS Kansas City/Pleasant Hill, MO

Home | Current Version | Previous Version | Graphics & Text | Print | Product List | Glossary Off
Versions: 1 2 3 4 5 6 7 8 9 10 11 12 13 14 15 16 17 18 19 20 21 22 23 24 25 26 27 28 29 30 31 32 33 34 35 36 37 38 39 40 41 42 43 44 45 46 47 48 49 50

527
ASUS43 KEAX 111210
RWREAX

WEATHER ROUNDUP FOR EASTERN KANSAS AND NORTHWEST MISSOURI
NATIONAL WEATHER SERVICE KANSAS CITY/PLEASANT HILL MO
600 AM CST THU FEB 11 2016

KSZ040-057-103>105-MOZ028-029-037-043-111300-
...KANSAS CITY METROPOLITAN AREA...

CITY           SKY/WX    TMP DP  RH WIND       PRES   REMARKS
K.C. INTL      PTCLDY    21  18  88 NE6       30.21R WCI  13
6HR MIN TEMP:  21; 6HR MAX TEMP:  25;

K.C. DOWNTOWN  PTCLDY    23  18  81 NE8       30.23R WCI  14
6HR MIN TEMP:  23; 6HR MAX TEMP:  27;

LEES SUMMIT    PTCLDY    22  18  85 NE8       30.22R WCI  12
6HR MIN TEMP:  22; 6HR MAX TEMP:  26;

OLATHE - IXD   PTCLDY    22  18  85 NE10      30.21R WCI  11
6HR MIN TEMP:  22; 6HR MAX TEMP:  29;

OLATHE - OJC   PTCLDY    22  17  81 NE10      30.20R WCI  11
6HR MIN TEMP:  22; 6HR MAX TEMP:  28;

LAWRENCE       CLEAR     22  18  85 NE6       30.23R WCI  14

$$

MOZ001>008-011>017-020>025-030>033-038>040-044>046-053-054-111300-
...NORTHERN AND CENTRAL MISSOURI...

CITY           SKY/WX    TMP DP  RH WIND       PRES   REMARKS
ST. JOSEPH     PTCLDY    20  17  88 NE7       30.25R WCI  11
6HR MIN TEMP:  20; 6HR MAX TEMP:  27;

MOSBY          MOSUNNY   23  19  86 CALM      30.23R
WARRENSBURG    PTCLDY    21  19  93 N7        30.22S WCI  13
WHITEMAN AFB   PTCLDY    21  18  88 NE6       30.20R WCI  14
6HR MIN TEMP:  21; 6HR MAX TEMP:  27;

CLINTON          N/A     27  21  80 NE8       30.20R WCI  18
SEDALIA        PTCLDY    22  17  81 NE8       30.22R WCI  12
6HR MIN TEMP:  22; 6HR MAX TEMP:  27;

WARSAW         NOT AVBL
CHILLICOTHE      N/A     22  16  78 NE9       30.27R WCI  12
6HR MIN TEMP:  22; 6HR MAX TEMP:  25;

KIRKSVILLE     MOCLDY    16   9  74 NE9       30.27R WCI   4
6HR MIN TEMP:  16; 6HR MAX TEMP:  20;


$$

MOZ041-047>049-056>058-063>065-088>090-097-111300-
...EASTERN AND SOUTHERN MISSOURI...

CITY           SKY/WX    TMP DP  RH WIND       PRES   REMARKS
ST. LOUIS INTL CLOUDY    23  16  74 NE8       30.26R WCI  14
6HR MIN TEMP:  23; 6HR MAX TEMP:  24;

SPIRIT OF STL  CLOUDY    22  16  78 NE8       30.26R WCI  12
COLUMBIA       CLOUDY    22  18  85 NE13      30.22R WCI  10
JEFFERSON CITY CLOUDY    23  18  81 NE7       30.25R WCI  15
ROLLA          CLOUDY    22  19  89 NE12      30.17R WCI  10
OSAGE BEACH    CLEAR     21  14  73 NE7       30.20R WCI  13
SPRINGFIELD    CLEAR     27  16  63 NE9       30.10R WCI  18
BRANSON        CLOUDY    25  16  68 NE6       30.10R WCI  18
JOPLIN         CLEAR     27  21  78 NE12      30.13R WCI  17
WEST PLAINS    CLOUDY    21  12  68 NE9       30.12R WCI  11

$$

IAZ060-094-KSZ022-034>040-054-083-096-NEZ052-066-093-111300-
...KANSAS...SOUTHEAST NEBRASKA AND IOWA...

CITY           SKY/WX    TMP DP  RH WIND       PRES   REMARKS
TOPEKA         CLEAR     23  18  81 NE5       30.23R WCI  17
6HR MIN TEMP:  23; 6HR MAX TEMP:  33;

MANHATTAN      CLOUDY    26  23  88 NE7       30.24R WCI  18
EMPORIA        CLEAR     23  20  88 NE13      30.18R WCI  11
CHANUTE        CLEAR     26  21  81 N12       30.17R WCI  16
WICHITA        PTCLDY    33  26  75 N12       30.17R WCI  24
OMAHA          CLOUDY    15   3  59 NE5       30.30R WCI   8
LINCOLN        CLOUDY    18  14  84 NE8       30.28R WCI   8
FALLS CITY     CLOUDY    20  17  88 N6        30.26R WCI  12
LAMONI         CLOUDY    12   6  77 NE7       30.26R WCI   1
DES MOINES     CLOUDY     8  -2  63 NE7       30.31R WCI  -3

$$





USA.gov is the U.S. government's official web portal to all federal, state and local government web resources and services.